This is the latest recevied weather packets stored in our database for station/object K2RMB. If no packets are shown the sender has not sent any weather packets the latest 10 day(s).
| Time | Temp. | Humidity | Pressure | Rain* | Wind** | Luminosity | Snow |
|---|---|---|---|---|---|---|---|
| 1777150724 | 11.67° C | 48% | 1015.6 hPa | 0 mm | - | 116 W/m² | - |
| 1777150420 | 11.67° C | 50% | 1015.6 hPa | 0 mm | - | 111 W/m² | - |
| 1777150117 | 12.22° C | 47% | 1015.6 hPa | 0 mm | - | 110 W/m² | - |
| 1777149812 | 12.22° C | 47% | 1016.1 hPa | 0 mm | - | 116 W/m² | - |
| 1777149509 | 12.22° C | 48% | 1016.1 hPa | 0 mm | - | 122 W/m² | - |
| 1777149206 | 12.22° C | 48% | 1016.1 hPa | 0 mm | - | 132 W/m² | - |
| 1777148906 | 11.67° C | 49% | 1016.1 hPa | 0 mm | - | 138 W/m² | - |
| 1777148603 | 11.67° C | 50% | 1016.1 hPa | 0 mm | - | 143 W/m² | - |
| 1777148299 | 12.22° C | 48% | 1016.4 hPa | 0 mm | - | 150 W/m² | - |
| 1777147995 | 12.22° C | 46% | 1016.4 hPa | 0 mm | - | 163 W/m² | - |
| 1777147691 | 12.22° C | 50% | 1016.4 hPa | 0 mm | - | 175 W/m² | - |
| 1777147387 | 12.22° C | 47% | 1016.1 hPa | 0 mm | - | 181 W/m² | - |
| 1777147082 | 12.22° C | 47% | 1016.4 hPa | 0 mm | - | 191 W/m² | - |
| 1777146779 | 11.67° C | 48% | 1016.4 hPa | 0 mm | - | 199 W/m² | - |
| 1777146474 | 12.22° C | 47% | 1016.4 hPa | 0 mm | - | 200 W/m² | - |
| 1777146171 | 12.22° C | 47% | 1016.4 hPa | 0 mm | - | 202 W/m² | - |
| 1777145867 | 12.22° C | 47% | 1016.4 hPa | 0 mm | - | 207 W/m² | - |
| 1777145563 | 12.22° C | 46% | 1016.4 hPa | 0 mm | - | 212 W/m² | - |
| 1777145258 | 12.22° C | 46% | 1016.4 hPa | 0 mm | - | 213 W/m² | - |
| 1777144954 | 12.22° C | 46% | 1016.4 hPa | 0 mm | - | 212 W/m² | - |
| 1777144653 | 12.22° C | 47% | 1016.4 hPa | 0 mm | - | 219 W/m² | - |
| 1777144348 | 11.67° C | 48% | 1016.4 hPa | 0 mm | - | 225 W/m² | - |
| 1777144045 | 12.22° C | 48% | 1016.7 hPa | 0 mm | - | 229 W/m² | - |
| 1777143741 | 11.67° C | 46% | 1016.4 hPa | 0 mm | - | 240 W/m² | - |
| 1777143438 | 11.67° C | 46% | 1016.7 hPa | 0 mm | - | 257 W/m² | - |
* Rain latest hour (hover to see other rain measurements)
** Current wind speed in m/s (hover to see current wind gust speed)